Regional Weather Roundup
Issued by NWS

Home | Current Version | Previous Version | Graphics & Text | Print | Product List | Glossary On
Versions: 1 2 3 4 5 6 7 8 9 10 11 12 13 14 15 16 17 18 19 20 21 22 23 24 25 26 27 28 29 30 31 32 33 34 35 36 37 38 39 40 41 42 43 44 45 46 47 48 49 50
386
ASUS43 KMKX 221859
RWRWI

WISCONSIN REGIONAL WEATHER ROUNDUP
NATIONAL WEATHER SERVICE MILWAUKEE/SULLIVAN WI
100 PM CST SUN JAN 22 2017

NOTE: "FAIR" INDICATES FEW OR NO CLOUDS BELOW 12,000 FEET WITH NO
SIGNIFICANT WEATHER AND/OR OBSTRUCTIONS TO VISIBILITY.

WIZ001-002-006>008-014>016-023>028-222000-
NORTHWEST WISCONSIN

CITY           SKY/WX    TMP DP  RH WIND       PRES   REMARKS
SUPERIOR ARPT  CLOUDY    37  37  97 CALM      29.69F
ASHLAND        CLOUDY    36  35  96 CALM      29.68S
HAYWARD        CLOUDY    37  34  89 N3        29.66S
SIREN          CLOUDY    37  36  94 NW6       29.69S WCI  32
CUMBERLAND     CLOUDY    34  32  93 NW9       29.68R WCI  26
RICE LAKE      CLOUDY    36  36 100 NW5       29.69S WCI  32
CHETEK         CLOUDY    36  36 100 CALM      29.67S
LADYSMITH      CLOUDY    37  36  98 NW5       29.67R WCI  33
EAU CLAIRE     NOT AVBL
MENOMONIE        N/A    N/A N/A N/A MISG        N/A
NEW RICHMOND   CLOUDY    36  36 100 NW6       29.70S WCI  31
OSCEOLA        CLOUDY    38  38 100 NW7       29.73S WCI  32
$$

WIZ003>005-009-010-017-018-222000-
NORTH CENTRAL WISCONSIN

CITY           SKY/WX    TMP DP  RH WIND       PRES   REMARKS
MANITOWISH WTR CLOUDY    34  34 100 W5        29.62S FOG     WCI  30
ARBOR VITAE    CLOUDY    37  36  98 NW3       29.61F FOG
WOODRUFF       CLOUDY    37  36  98 NW3       29.61F FOG
RHINELANDER    CLOUDY    37  37 100 W5        29.61S WCI  33
EAGLE RIVER    CLOUDY    37  37 100 CALM      29.60F FOG
LAND O LAKES   CLOUDY    38  38 100 CALM      29.61F
PHILLIPS       CLOUDY    34  34 100 CALM      29.63S FOG
TOMAHAWK       CLOUDY    37  36  96 CALM      29.62S
MEDFORD        FOG       35  35  99 W5        29.63S VSB 1/4 WCI  31
MERRILL        CLOUDY    37  37 100 CALM        N/A
$$

WIZ029-030-035-036-043>047-222000-
CENTRAL WISCONSIN

CITY           SKY/WX    TMP DP  RH WIND       PRES   REMARKS
WAUSAU         CLOUDY    36  35  96 W5        29.61S WCI  32
MOSINEE        CLOUDY    36  36 100 NW3       29.63F
MARSHFIELD     CLOUDY    35  34  96 W5        29.62S WCI  31
STEVENS POINT  CLOUDY    35  35 100 CALM      29.64S FOG
WAUPACA        CLOUDY    40  39  97 CALM      29.63F
WAUTOMA        CLOUDY    39  38  96 W7        29.64S WCI  34
WISC RAPIDS    CLOUDY    37  36  96 NW6       29.65S WCI  32
CAMP DOUGLAS   NOT AVBL
$$

WIZ011>013-019>022-031-037>040-048>050-222000-
NORTHEAST WISCONSIN

CITY           SKY/WX    TMP DP  RH WIND       PRES   REMARKS
ANTIGO         CLOUDY    35  35 100 NW3       29.61F FOG
SHAWANO        CLOUDY    40  39  95 W3        29.63S
OCONTO         CLOUDY    38  38  99 W3        29.61F
STURGEON BAY   FOG       39  38  96 W3        29.63S VSB 1/4
GREEN BAY      CLOUDY    40  40 100 SW5       29.62F FOG
MANITOWOC      NOT AVBL
APPLETON       FOG       37  37 100 W6        29.60F VSB 3/8 WCI  33
CLINTONVILLE   CLOUDY    37  37 100 W5        29.62F FOG     WCI  34
OSHKOSH        FOG       38  37  97 W5        29.62F VSB 3/4 WCI  34
$$

WIZ032>034-041-042-053>061-222000-
SOUTHWEST WISCONSIN

CITY           SKY/WX    TMP DP  RH WIND       PRES   REMARKS
LA CROSSE      CLOUDY    40  36  86 NW6       29.68S FOG
SPARTA         CLOUDY    36  36 100 NW6       29.67S WCI  31
VIROQUA        CLOUDY    35  35 100 NW3       29.65F VSB<1/4
BOSCOBEL       CLOUDY    41  36  82 CALM      29.67S
PRAIRIE DU CHI CLOUDY    38  37  97 CALM      29.68S
PLATTEVILLE    CLOUDY    40  40 100 NW3       29.65F
$$

WIZ056-057-062-063-064-067-068-222000-
SOUTH CENTRAL WISCONSIN

CITY           SKY/WX    TMP DP  RH WIND       PRES   REMARKS
REEDSBURG      CLOUDY    38  38 100 CALM      29.64F
BARABOO/DELLS  CLOUDY    37  37  99 W3        29.64S FOG
LONE ROCK      NOT AVBL
MINERAL POINT  CLOUDY    41  41 100 NW6       29.64F
MADISON        CLOUDY    41  37  86 W3        29.64F
MIDDLETON      CLOUDY    41  41 100 W5        29.64F
WATERTOWN      CLOUDY    39  39 100 CALM      29.63F
MONROE         CLOUDY    41  41 100 CALM      29.63F
JANESVILLE     PTSUNNY   39  39 100 N7        29.63F FOG     WCI  34
$$

WIZ051-052-058>065-066-070>072-222000-
SOUTHEAST WISCONSIN

CITY           SKY/WX    TMP DP  RH WIND       PRES   REMARKS
MILWAUKEE      CLOUDY    45  38  76 W3        29.62F
WAUKESHA       CLOUDY    39  37  93 S2        29.63F
MILWAUKEE/TIMM NOT AVBL
RACINE         CLOUDY    45  38  76 CALM      29.63S
KENOSHA        CLOUDY    43  38  82 NW6       29.62S
FOND DU LAC    CLOUDY    41  36  82 W5        29.62F
SHEBOYGAN      CLOUDY    44  39  82 W7        29.61F
WEST BEND      CLOUDY    41  37  87 W3        29.62F
JUNEAU         CLOUDY    38  38  99 SW5       29.64F FOG     WCI  35
$$

LSZ147-162-222000-
LAKE SUPERIOR

STATION/POSITION TIME  TEMP    WIND        PRES    WAVE
                       AIR SEA DIR/SP/G            HT/PER
                 (UTC) (F)     (DEG/KT/KT) (MB)    (FT/S)
DEVILS ISLAND    1800   36     360/  5/  5 1005.8S
PORT WING        1830   35     280/  5/  5 1005.8S
SAXON HARBOR     1840   34     290/  6/  8 1004.7S
$$

LMZ867-665-643>646-222000-
LAKE MICHIGAN

STATION/POSITION TIME  TEMP    WIND        PRES    WAVE
                       AIR SEA DIR/SP/G            HT/PER
                 (UTC) (F)     (DEG/KT/KT) (MB)    (FT/S)
NORTHPORT PIER   1840   35     300/  3/  4 1003.4F
SISTER BAY       1805   35      10/  8/  9   N/A
KEWAUNEE LAKESHO 1824   40     280/  1/  3 1002.9
SHEBOYGAN LAKESH 1800   38     150/  5/  5 1003.5F
PORT WASHINGTON  1840   46     300/  6/  9 1004.1F
KENOSHA   LAKESH 1800   39      30/  2/  4 1003.4
$$

TC  - TEMPERATURE IN CELSIUS
VSB - VISIBILITY IN STATUTE MILES
WCI - WIND CHILL INDEX
HX  - HEAT INDEX





USA.gov is the U.S. government's official web portal to all federal, state and local government web resources and services.